This demonstration page uses our WeatherBlox Daily Observations layout. Learn more.

39.01783, -85.05884

Hourly Observations for July 17, 2019

Temp ( °F °C ) Dew Point ( °F °C ) Humidity (%) Winds ( mph kmh ) Pressure ( in mb ) Visibility ( mi km ) Precip ( " mm )
12:52 am 00:52 Mostly Cloudy 74 23.3 70 21.1 88 88 SSW 13 20 29.91 1013 10 16.09344 0 0
1:52 am 01:52 Mostly Clear 73 22.8 70 21.1 90 90 SSW 12 19 29.91 1013 10 16.09344 0 0
2:14 am 02:14 Mostly Cloudy 74 23.3 70 21.1 88 88 SW 12 19 29.94 1014 10 16.09344 0 0
2:52 am 02:52 Mostly Cloudy 73 22.8 70 21.1 90 90 SSW 12 19 29.88 1012 10 16.09344 0 0
3:34 am 03:34 Mostly Cloudy 73 22.8 70 21.1 90 90 S 10 17 29.91 1013 10 16.09344 0 0
3:52 am 03:52 Cloudy 73 22.8 70 21.1 90 90 SSW 10 17 29.88 1012 10 16.09344 0 0
4:24 am 04:24 Cloudy with Rain 73 22.8 70 21.1 90 90 SSW 12 19 29.88 1012 4 6.437376 0.01 0.254
4:52 am 04:52 Cloudy with Light Rain 73 22.8 70 21.1 90 90 S 8 13 29.88 1012 7 11.265408 0.08 2.032
5:52 am 05:52 Cloudy with Light Rain 73 22.8 70 21.1 90 90 S 10 17 29.88 1012 4 6.437376 0.08 2.032
6:19 am 06:19 Cloudy with Light Rain 73 22.8 70 21.1 90 90 S 10 17 29.88 1012 2.5 4.02336 0.06 1.524
6:24 am 06:24 Cloudy with Light Rain 73 22.8 70 21.1 90 90 S 12 19 29.88 1012 7 11.265408 0.06 1.524
6:43 am 06:43 Cloudy 73 22.8 70 21.1 90 90 SSW 7 11 29.88 1012 10 16.09344 0.06 1.524
6:52 am 06:52 Cloudy 73 22.8 70 21.1 90 90 SSW 9 15 29.88 1012 10 16.09344 0.06 1.524
7:52 am 07:52 Cloudy with Light Rain 74 23.3 71 21.7 91 91 SSW 8 13 29.88 1012 2 3.218688 0.001 0.001
8:13 am 08:13 Cloudy with Light Rain 73 22.8 71 21.7 94 94 SSW 10 17 29.91 1013 6 9.656064 0.03 0.762
8:52 am 08:52 Cloudy 74 23.3 71 21.7 91 91 SW 8 13 29.88 1012 7 11.265408 0.03 0.762
9:52 am 09:52 Cloudy 75 23.9 72 22.2 90 90 WSW 9 15 29.91 1013 10 16.09344 0 0
10:52 am 10:52 Cloudy 78 25.6 73 22.8 85 85 WSW 12 19 29.91 1013 10 16.09344 0 0
11:06 am 11:06 Cloudy 78 25.6 73 22.8 85 85 SW 12 19 29.94 1014 10 16.09344 0 0
11:39 am 11:39 Cloudy 78 25.6 74 23.3 87 87 SW 8 13 29.94 1014 9 14.484096 0.001 0.001
11:52 am 11:52 Mostly Cloudy 80 26.7 74 23.3 82 82 WSW 10 17 29.91 1013 9 14.484096 0.001 0.001
12:26 pm 12:26 Mostly Cloudy with Nearby Thunderstorms 80 26.7 73 22.8 79 79 WSW 9 15 29.94 1014 7 11.265408 0 0
12:52 pm 12:52 Mostly Cloudy with Nearby Thunderstorms 82 27.8 75 23.9 79 79 VRB 7 11 29.91 1013 10 16.09344 0.001 0.001
12:59 pm 12:59 Mostly Cloudy with Nearby Thunderstorms 81 27.2 74 23.3 79 79 WSW 10 17 29.91 1013 10 16.09344 0 0
1:13 pm 13:13 Mostly Cloudy 83 28.3 74 23.3 74 74 W 9 15 29.91 1013 10 16.09344 0 0
1:39 pm 13:39 Cloudy 79 26.1 71 21.7 77 77 N 10 17 29.94 1014 10 16.09344 0 0
1:42 pm 13:42 Cloudy with Thunderstorms 78 25.6 71 21.7 79 79 WNW 22 35 29.94 1014 9 14.484096 0 0
1:46 pm 13:46 Cloudy with Thunderstorms 75 24 72 22 89 89 NW 16 26 29.97 1015 1 1.609344 0.01 0.254
1:48 pm 13:48 Cloudy with Heavy Thunderstorms 75 24 72 22 89 89 NW 14 22 29.94 1014 1.5 2.414016 0.06 1.524
1:52 pm 13:52 Cloudy with Heavy Thunderstorms 74 23.3 71 21.7 91 91 W 12 19 29.94 1014 1 1.609344 0.3 7.62
2:00 pm 14:00 Cloudy with Thunderstorms 73 22.8 71 21.7 94 94 W 7 11 29.94 1014 2 3.218688 0.16 4.064
2:06 pm 14:06 Cloudy with Light Thunderstorms 74 23.3 71 21.7 91 91 SW 6 9 29.94 1014 7 11.265408 0.17 4.318
2:08 pm 14:08 Cloudy with Light Rain 74 23.3 71 21.7 91 91 SW 6 9 29.94 1014 7 11.265408 0.17 4.318
2:18 pm 14:18 Mostly Cloudy with Nearby Thunderstorms 75 23.9 71 21.7 88 88 SSW 7 11 29.94 1014 10 16.09344 0.17 4.318
2:42 pm 14:42 Mostly Cloudy with Light Rain 79 26.1 73 22.8 82 82 W 10 17 29.94 1014 10 16.09344 0.17 4.318
2:52 pm 14:52 Mostly Cloudy 82 27.8 74 23.3 77 77 W 9 15 29.91 1013 10 16.09344 0.17 4.318
3:00 pm 15:00 Mostly Cloudy with Nearby Thunderstorms 80 26.7 73 22.8 79 79 WSW 10 17 29.94 1014 10 16.09344 0 0
3:15 pm 15:15 Mostly Cloudy 82 27.8 74 23.3 77 77 SW 8 13 29.91 1013 10 16.09344 0 0
3:52 pm 15:52 Partly Cloudy 85 29.4 73 22.8 68 68 W 14 22 29.88 1012 10 16.09344 0 0
4:52 pm 16:52 Mostly Sunny 86 30 74 23.3 67 67 W 13 20 29.85 1011 10 16.09344 0 0
5:52 pm 17:52 Partly Cloudy 86 30 74 23.3 67 67 W 14 22 29.88 1012 10 16.09344 0 0
6:52 pm 18:52 Mostly Cloudy 86 30 71 21.7 61 61 NNW 18 30 29.88 1012 10 16.09344 0 0
6:58 pm 18:58 Mostly Cloudy with Nearby Thunderstorms 82 27.8 70 21.1 67 67 NNW 16 26 29.85 1011 10 16.09344 0 0
7:01 pm 19:01 Mostly Cloudy with Thunderstorms 81 27.2 70 21.1 69 69 N 13 20 29.85 1011 10 16.09344 0 0
7:25 pm 19:25 Mostly Cloudy with Rain 79 26.1 71 21.7 77 77 W 10 17 29.91 1013 6 9.656064 0.12 3.048
7:52 pm 19:52 Mostly Cloudy 81 27.2 73 22.8 77 77 WNW 5 7 29.88 1012 10 16.09344 0.12 3.048
8:52 pm 20:52 Mostly Cloudy 78 25.6 73 22.8 85 85 WNW 6 9 29.88 1012 10 16.09344 0 0
9:48 pm 21:48 Cloudy with Thunderstorms 79 26 73 23 84 84 WSW 5 7 29.94 1014 10 16.09344 0 0
9:52 pm 21:52 Cloudy with Thunderstorms 78 25.6 73 22.8 85 85 WSW 6 9 29.91 1013 10 16.09344 0 0
10:07 pm 22:07 Cloudy 76 24.4 73 22.8 91 91 W 9 15 29.94 1014 10 16.09344 0 0
10:52 pm 22:52 Cloudy 76 24.4 72 22.2 88 88 W 7 11 29.94 1014 10 16.09344 0 0
11:52 pm 23:52 Cloudy 75 23.9 71 21.7 88 88 W 8 13 29.91 1013 10 16.09344 0 0

Powered by AerisWeather